Location: Amsterdam
(30.7274°N, 84.4357°W)
Time: 21:15:16
(UTC+00:00)

Tiros 1 despin weight - Pass Details

Date: 20 February 2026
Orbit: 556 x 593 km, 48.2° (Epoch: 3 March)

Event Time Altitude Azimuth Distance (km) Brightness Sun altitude
Rises 23:40:34 0° 325° (NW) 2,732 ? -3.1°
Reaches altitude 10° 23:45:29 10° 15° (NNE) 1,836 ? -4.2°
Maximum altitude 23:45:35 10° 17° (NNE) 1,836 ? -4.2°
Drops below altitude 10° 23:45:41 10° 18° (NNE) 1,836 ? -4.2°
Enters shadow 23:49:10 - 58° (ENE) 2,339 ? -4.9°
Sets 23:50:37 0° 69° (ENE) 2,735 - -5.2°
